JAL231 RJTT-RJOB

Flight info

Callsign JAL231
Flight time 1h 3m
Altitude 30000
Route NINOX Y28 IPLES Y207 ARASI Y20 WAKIT Y205 OYE
Aircraft B738/M-SDFGHIJ1RWXYZ/LB1

Departure

Time 2026-05-04 15:34
Airport Tokyo Haneda International Airport (RJTT)

Arrival

Time 2026-05-04 16:37
Airport Okayama Momotaro Airport (RJOB)
Time Latitude Longitude Altitude Speed Heading
2026-05-04 14:51 35.54527 139.78424 23 ft 0 kts 75°
2026-05-04 15:20 35.54524 139.78412 28 ft 4 kts 79°
2026-05-04 15:21 35.54519 139.78379 25 ft 4 kts 67°
2026-05-04 15:21 35.54510 139.78358 29 ft 4 kts 22°
2026-05-04 15:21 35.54466 139.78377 28 ft 4 kts 330°
2026-05-04 15:22 35.54458 139.78383 29 ft 0 kts 330°
2026-05-04 15:23 35.54460 139.78382 23 ft 0 kts 329°
2026-05-04 15:24 35.54461 139.78381 23 ft 0 kts 329°
2026-05-04 15:24 35.54491 139.78358 26 ft 4 kts 328°
2026-05-04 15:25 35.54519 139.78337 26 ft 6 kts 329°
2026-05-04 15:25 35.54558 139.78310 25 ft 6 kts 330°
2026-05-04 15:25 35.54589 139.78272 25 ft 6 kts 297°
2026-05-04 15:26 35.54561 139.78181 23 ft 6 kts 205°
2026-05-04 15:26 35.54523 139.78203 25 ft 7 kts 140°
2026-05-04 15:26 35.54406 139.78289 24 ft 10 kts 147°
2026-05-04 15:27 35.54346 139.78335 23 ft 10 kts 150°
2026-05-04 15:27 35.54217 139.78425 23 ft 14 kts 150°
2026-05-04 15:28 35.54212 139.78602 25 ft 12 kts 59°
2026-05-04 15:28 35.54256 139.78697 26 ft 14 kts 59°
2026-05-04 15:28 35.54384 139.78962 24 ft 22 kts 61°
2026-05-04 15:29 35.54464 139.79134 26 ft 25 kts 60°
2026-05-04 15:30 35.54722 139.79717 22 ft 7 kts 118°
2026-05-04 15:30 35.54530 139.79862 22 ft 12 kts 150°
2026-05-04 15:31 35.54338 139.79997 22 ft 20 kts 150°
2026-05-04 15:31 35.54203 139.80092 24 ft 25 kts 150°
2026-05-04 15:32 35.53936 139.80403 23 ft 13 kts 57°
2026-05-04 15:32 35.54055 139.80449 25 ft 0 kts 329°
2026-05-04 15:33 35.54059 139.80446 25 ft 4 kts 329°
2026-05-04 15:34 35.55909 139.79115 828 ft 141 kts 329°
2026-05-04 15:34 35.56732 139.78543 1914 ft 125 kts 332°
2026-05-04 15:34 35.58827 139.78557 2772 ft 199 kts 17°
2026-05-04 15:35 35.60454 139.81925 3292 ft 284 kts 84°
2026-05-04 15:35 35.59975 139.84316 4083 ft 296 kts 118°
2026-05-04 15:35 35.58700 139.86293 5035 ft 292 kts 135°
2026-05-04 15:36 35.56301 139.90323 6977 ft 296 kts 124°
2026-05-04 15:36 35.55273 139.92545 7843 ft 298 kts 123°
2026-05-04 15:36 35.53972 139.94496 8481 ft 300 kts 149°
2026-05-04 15:37 35.52073 139.95501 9192 ft 294 kts 175°
2026-05-04 15:37 35.50103 139.95415 10234 ft 277 kts 199°
2026-05-04 15:37 35.48220 139.94829 10738 ft 292 kts 200°
2026-05-04 15:37 35.46368 139.93698 10958 ft 303 kts 225°
2026-05-04 15:38 35.45177 139.91562 11338 ft 314 kts 251°
2026-05-04 15:38 35.44746 139.88850 11575 ft 332 kts 261°
2026-05-04 15:38 35.44435 139.86015 12236 ft 335 kts 261°
2026-05-04 15:38 35.44098 139.83185 13046 ft 335 kts 260°
2026-05-04 15:39 35.43732 139.80363 13774 ft 335 kts 259°
2026-05-04 15:39 35.43350 139.77537 14389 ft 337 kts 259°
2026-05-04 15:39 35.42931 139.71806 15473 ft 348 kts 273°
2026-05-04 15:40 35.43486 139.68849 16063 ft 355 kts 282°
2026-05-04 15:40 35.44253 139.65960 16651 ft 358 kts 283°
2026-05-04 15:40 35.45042 139.63088 17206 ft 361 kts 283°
2026-05-04 15:40 35.45838 139.60155 17758 ft 363 kts 282°
2026-05-04 15:41 35.46623 139.57194 18288 ft 365 kts 282°
2026-05-04 15:41 35.47402 139.54212 18780 ft 367 kts 281°
2026-05-04 15:41 35.48174 139.51226 19312 ft 366 kts 280°
2026-05-04 15:41 35.48623 139.48214 19794 ft 359 kts 268°
2026-05-04 15:42 35.48711 139.45152 20289 ft 359 kts 268°
2026-05-04 15:42 35.48809 139.42078 20756 ft 361 kts 268°
2026-05-04 15:42 35.48919 139.38986 21226 ft 362 kts 268°
2026-05-04 15:42 35.49037 139.35889 21668 ft 363 kts 268°
2026-05-04 15:43 35.49160 139.32775 22067 ft 365 kts 268°
2026-05-04 15:43 35.49281 139.29701 22468 ft 367 kts 268°
2026-05-04 15:43 35.49406 139.26550 22826 ft 369 kts 267°
2026-05-04 15:43 35.49532 139.23401 23133 ft 371 kts 267°
2026-05-04 15:44 35.49661 139.20251 23725 ft 366 kts 267°
2026-05-04 15:44 35.49779 139.17127 24064 ft 366 kts 267°
2026-05-04 15:44 35.49790 139.13985 24194 ft 369 kts 263°
2026-05-04 15:44 35.49646 139.10831 24486 ft 370 kts 262°
2026-05-04 15:45 35.49464 139.07716 24793 ft 370 kts 261°
2026-05-04 15:45 35.49278 139.04553 25112 ft 371 kts 261°
2026-05-04 15:45 35.49099 139.01381 25391 ft 371 kts 261°
2026-05-04 15:45 35.48932 138.98220 25689 ft 372 kts 261°
2026-05-04 15:46 35.48771 138.95056 26095 ft 369 kts 261°
2026-05-04 15:46 35.48623 138.91955 26497 ft 367 kts 261°
2026-05-04 15:46 35.48468 138.88828 26970 ft 364 kts 261°
2026-05-04 15:46 35.48313 138.85722 27478 ft 362 kts 261°
2026-05-04 15:47 35.48160 138.82690 28165 ft 356 kts 260°
2026-05-04 15:47 35.48011 138.79687 28825 ft 349 kts 260°
2026-05-04 15:47 35.47862 138.76730 29343 ft 346 kts 260°
2026-05-04 15:47 35.47710 138.73763 29668 ft 347 kts 259°
2026-05-04 15:48 35.47558 138.70800 29915 ft 350 kts 259°
2026-05-04 15:48 35.47098 138.61843 29915 ft 350 kts 259°
2026-05-04 15:49 35.46790 138.55893 29925 ft 349 kts 259°
2026-05-04 15:49 35.46475 138.49924 29916 ft 350 kts 259°
2026-05-04 15:50 35.46164 138.43991 29924 ft 350 kts 259°
2026-05-04 15:50 35.45849 138.38018 29891 ft 349 kts 259°
2026-05-04 15:51 35.45532 138.32118 29942 ft 348 kts 259°
2026-05-04 15:51 35.45213 138.26180 29916 ft 348 kts 259°
2026-05-04 15:52 35.44902 138.20269 29927 ft 349 kts 261°
2026-05-04 15:52 35.44578 138.14375 30002 ft 348 kts 259°
2026-05-04 15:53 35.44206 138.08446 29937 ft 351 kts 259°
2026-05-04 15:53 35.43848 138.02487 29969 ft 350 kts 259°
2026-05-04 15:54 35.43556 137.97510 29963 ft 352 kts 259°
2026-05-04 15:54 35.43139 137.90525 29996 ft 354 kts 259°
2026-05-04 15:55 35.42837 137.85496 29972 ft 355 kts 259°
2026-05-04 15:55 35.42470 137.79454 30007 ft 355 kts 259°
2026-05-04 15:56 35.42070 137.73507 30003 ft 346 kts 258°
2026-05-04 15:56 35.41631 137.67612 29991 ft 347 kts 258°
2026-05-04 15:57 35.41225 137.61744 29991 ft 346 kts 258°
2026-05-04 15:57 35.40757 137.55849 29997 ft 347 kts 257°
2026-05-04 15:58 35.40088 137.49987 30022 ft 349 kts 256°
2026-05-04 15:58 35.39362 137.44077 30004 ft 351 kts 256°
2026-05-04 15:59 35.38646 137.38149 30023 ft 351 kts 256°
2026-05-04 15:59 35.37936 137.32236 30026 ft 350 kts 257°
2026-05-04 16:00 35.37232 137.26365 30031 ft 350 kts 256°
2026-05-04 16:00 35.36520 137.20469 30036 ft 349 kts 256°
2026-05-04 16:01 35.35808 137.14593 30023 ft 348 kts 256°
2026-05-04 16:01 35.35099 137.08748 30029 ft 346 kts 256°
2026-05-04 16:02 35.34392 137.02915 30023 ft 345 kts 256°
2026-05-04 16:03 35.33334 136.94235 30036 ft 345 kts 256°
2026-05-04 16:03 35.32619 136.88405 30034 ft 345 kts 256°
2026-05-04 16:04 35.31907 136.82609 30034 ft 345 kts 256°
2026-05-04 16:04 35.30827 136.73866 30031 ft 346 kts 256°
2026-05-04 16:05 35.30108 136.68077 30039 ft 346 kts 256°
2026-05-04 16:06 35.29009 136.59313 30055 ft 347 kts 256°
2026-05-04 16:07 35.27535 136.47660 30066 ft 345 kts 256°
2026-05-04 16:08 35.26080 136.36051 30056 ft 346 kts 256°
2026-05-04 16:09 35.24252 136.21372 30068 ft 350 kts 256°
2026-05-04 16:10 35.22619 136.09682 30124 ft 348 kts 255°
2026-05-04 16:11 35.20892 135.98053 30077 ft 343 kts 256°
2026-05-04 16:12 35.19701 135.89923 30074 ft 314 kts 255°
2026-05-04 16:12 35.18598 135.82486 30072 ft 277 kts 255°
2026-05-04 16:13 35.17934 135.78092 29795 ft 250 kts 254°
2026-05-04 16:13 35.17240 135.74001 28806 ft 248 kts 254°
2026-05-04 16:14 35.16484 135.69609 26500 ft 288 kts 256°
2026-05-04 16:14 35.15664 135.64779 25687 ft 286 kts 256°
2026-05-04 16:15 35.14461 135.57678 24506 ft 284 kts 257°
2026-05-04 16:16 35.13666 135.52988 23721 ft 284 kts 257°
2026-05-04 16:16 35.12454 135.45908 22516 ft 281 kts 259°
2026-05-04 16:17 35.11663 135.41279 21783 ft 277 kts 259°
2026-05-04 16:18 35.10489 135.34428 20713 ft 272 kts 260°
2026-05-04 16:18 35.10105 135.32192 20338 ft 272 kts 260°
2026-05-04 16:19 35.08935 135.25384 18724 ft 288 kts 261°
2026-05-04 16:19 35.08141 135.20745 18082 ft 269 kts 262°
2026-05-04 16:20 35.06980 135.13925 15675 ft 300 kts 262°
2026-05-04 16:20 35.06097 135.08775 14094 ft 313 kts 263°
2026-05-04 16:21 35.04765 135.01095 12957 ft 304 kts 263°
2026-05-04 16:22 35.03900 134.96071 12222 ft 299 kts 263°
2026-05-04 16:22 35.02402 134.88889 11532 ft 282 kts 258°
2026-05-04 16:23 35.00667 134.82248 10913 ft 267 kts 259°
2026-05-04 16:24 34.98479 134.73730 10077 ft 267 kts 258°
2026-05-04 16:25 34.97355 134.69341 9648 ft 273 kts 258°
2026-05-04 16:26 34.95109 134.60528 8758 ft 266 kts 259°
2026-05-04 16:26 34.93472 134.54081 8113 ft 265 kts 258°
2026-05-04 16:27 34.92369 134.49802 7648 ft 262 kts 259°
2026-05-04 16:28 34.90723 134.43463 7053 ft 263 kts 258°
2026-05-04 16:28 34.89060 134.37086 6399 ft 260 kts 259°
2026-05-04 16:29 34.86896 134.28777 5595 ft 257 kts 258°
2026-05-04 16:30 34.85250 134.22458 5007 ft 263 kts 258°
2026-05-04 16:31 34.84162 134.18255 4630 ft 255 kts 258°
2026-05-04 16:31 34.84076 134.12542 4591 ft 210 kts 289°
2026-05-04 16:32 34.85186 134.07340 4295 ft 215 kts 288°
2026-05-04 16:33 34.84731 134.03870 3832 ft 210 kts 246°
2026-05-04 16:33 34.83269 134.00913 3373 ft 198 kts 242°
2026-05-04 16:34 34.81892 133.98147 2909 ft 180 kts 243°
2026-05-04 16:34 34.81275 133.96904 2693 ft 168 kts 242°
2026-05-04 16:35 34.79578 133.93454 2100 ft 151 kts 242°
2026-05-04 16:35 34.77992 133.90219 1541 ft 148 kts 241°
2026-05-04 16:36 34.77459 133.89129 1336 ft 152 kts 240°
2026-05-04 16:36 34.76361 133.86906 856 ft 150 kts 240°
2026-05-04 16:37 34.75553 133.85257 805 ft 46 kts 239°
2026-05-04 16:37 34.75479 133.85106 809 ft 11 kts 245°
2026-05-04 16:37 34.75561 133.85003 808 ft 9 kts 329°
2026-05-04 16:38 34.75627 133.85016 810 ft 6 kts 57°
2026-05-04 16:39 34.75721 133.85203 802 ft 11 kts 59°
2026-05-04 16:39 34.75806 133.85377 801 ft 12 kts 60°
2026-05-04 16:40 34.75881 133.85529 800 ft 2 kts 49°
2026-05-04 16:40 34.75901 133.85527 800 ft 2 kts 329°
2026-05-04 16:41 34.75948 133.85493 802 ft 6 kts 329°
2026-05-04 16:41 34.76008 133.85449 803 ft 0 kts 329°